Total_Precipitation_Accumulation
1.84 2.22 2.51 3.09 3.71 4.07 4.44 4.56 4.50 4.35 4.12 3.69 3.34 3.08 2.85 2.67 2.42 2.24 2.15 2.03 1.93 2.01 2.29 2.18 2.25 2.22 2.21 2.21 2.25 2.28 2.13 1.80 1.98 2.05 1.65 1.24 0.97 0.92 0.69 0.64 0.66 0.66 0.64
1.76 2.25 2.49 2.71 3.21 3.73 4.16 4.42 4.54 4.39 4.00 3.55 3.27 3.07 3.00 2.66 2.37 2.32 2.30 2.12 2.12 2.11 2.12 2.17 2.12 2.13 2.19 2.10 2.07 2.14 1.95 1.62 1.73 1.87 1.92 1.42 1.12 0.88 0.63 0.67 0.75 0.80 0.84
2.04 2.27 2.41 2.55 2.81 3.24 3.54 3.64 3.78 3.73 3.52 3.49 3.40 3.20 3.13 2.75 2.57 2.54 2.51 2.34 2.32 2.24 2.21 2.15 2.03 1.91 1.81 1.76 1.80 1.86 1.83 1.66 1.58 1.75 1.98 1.62 1.21 1.04 0.78 0.73 0.76 0.90 1.01
1.69 1.78 2.06 2.37 2.58 2.80 3.11 3.35 3.39 3.32 3.19 3.23 3.15 2.93 2.69 2.53 2.58 2.77 2.73 2.49 2.27 2.07 1.84 1.70 1.71 1.68 1.61 1.56 1.41 1.46 1.53 1.46 1.35 1.46 1.56 1.61 1.59 1.50 1.04 0.76 0.70 0.82 0.92
1.42 1.51 1.70 2.00 2.12 2.40 2.66 2.93 3.20 3.25 3.15 3.12 3.00 2.95 2.75 2.67 2.67 2.59 2.47 2.24 2.01 1.74 1.48 1.37 1.40 1.39 1.36 1.28 1.22 1.24 1.17 1.14 1.13 1.26 1.43 1.52 1.56 1.54 1.44 1.09 0.99 0.97 0.85
1.25 1.43 1.59 1.79 1.89 2.02 2.14 2.27 2.50 2.74 2.82 2.82 2.75 2.67 2.54 2.45 2.36 2.16 1.95 1.75 1.60 1.38 1.16 1.07 1.13 1.20 1.24 1.18 1.13 1.14 1.07 1.08 1.18 1.20 1.28 1.41 1.39 1.40 1.49 1.26 1.14 1.08 0.91
0.97 1.19 1.31 1.39 1.51 1.60 1.64 1.77 1.99 2.28 2.34 2.30 2.28 2.30 2.24 2.17 2.04 1.95 1.77 1.56 1.36 1.11 1.05 1.04 1.07 1.11 1.17 1.08 1.06 1.04 1.08 1.16 1.24 1.22 1.22 1.31 1.33 1.35 1.46 1.41 1.28 1.20 1.11
0.74 0.88 1.07 1.27 1.33 1.34 1.40 1.50 1.75 1.94 1.98 1.87 1.94 2.03 2.00 2.00 1.88 1.90 1.69 1.42 1.24 1.16 1.20 1.15 1.07 1.01 1.04 0.98 1.08 1.02 1.02 1.13 1.19 1.10 1.24 1.29 1.31 1.46 1.57 1.61 1.59 1.44 1.30
0.71 0.76 0.83 0.98 1.03 1.05 1.11 1.23 1.55 1.76 1.81 1.78 1.83 1.90 1.92 1.84 1.70 1.60 1.48 1.28 1.26 1.22 1.33 1.28 1.21 1.13 1.12 1.15 1.24 1.23 1.25 1.37 1.37 1.37 1.50 1.47 1.38 1.42 1.47 1.54 1.60 1.67 1.48
0.51 0.55 0.55 0.61 0.73 0.88 1.06 1.18 1.26 1.47 1.64 1.65 1.64 1.64 1.74 1.66 1.54 1.47 1.31 1.13 1.06 1.09 1.23 1.28 1.24 1.18 1.17 1.25 1.35 1.40 1.53 1.63 1.63 1.66 1.72 1.67 1.54 1.54 1.59 1.59 1.65 1.76 1.64
0.39 0.44 0.49 0.54 0.67 0.79 0.95 1.11 1.15 1.27 1.39 1.44 1.51 1.49 1.45 1.47 1.43 1.30 1.14 1.08 1.06 1.02 1.03 1.12 1.19 1.17 1.20 1.25 1.31 1.35 1.56 1.65 1.63 1.60 1.60 1.53 1.51 1.49 1.44 1.52 1.64 1.76 1.75
0.46 0.48 0.55 0.60 0.70 0.79 0.84 0.90 0.96 1.07 1.21 1.35 1.51 1.56 1.50 1.47 1.39 1.20 1.08 1.06 1.05 1.04 1.05 1.13 1.17 1.08 1.06 1.17 1.24 1.29 1.42 1.50 1.48 1.43 1.42 1.28 1.27 1.30 1.25 1.33 1.39 1.48 1.66
0.53 0.55 0.59 0.58 0.63 0.72 0.79 0.74 0.78 0.91 1.07 1.29 1.60 1.72 1.67 1.55 1.39 1.21 1.05 1.00 1.03 1.07 1.08 1.09 1.12 1.13 1.19 1.28 1.30 1.29 1.27 1.27 1.29 1.39 1.46 1.29 1.25 1.20 1.21 1.22 1.19 1.23 1.39
0.59 0.64 0.61 0.66 0.69 0.67 0.74 0.74 0.77 0.83 0.96 1.14 1.36 1.45 1.35 1.25 1.18 1.09 0.98 0.93 0.96 1.03 1.07 1.10 1.10 1.15 1.25 1.28 1.33 1.33 1.25 1.17 1.14 1.20 1.26 1.27 1.25 1.23 1.30 1.27 1.24 1.24 1.35
0.53 0.53 0.51 0.56 0.63 0.63 0.70 0.66 0.61 0.59 0.68 0.86 0.98 1.08 1.06 0.99 0.95 0.95 0.93 0.90 0.99 1.01 1.07 1.15 1.15 1.11 1.09 1.04 1.04 1.06 1.07 1.10 1.06 1.01 1.01 1.04 1.13 1.15 1.15 1.09 1.20 1.30 1.34
0.35 0.34 0.44 0.51 0.50 0.48 0.50 0.44 0.45 0.52 0.63 0.74 0.84 0.97 1.06 1.04 0.97 0.93 0.95 0.93 1.01 1.06 1.10 1.12 1.18 1.17 0.97 1.05 1.05 1.03 1.13 1.20 1.17 1.11 1.04 0.99 0.98 0.94 0.91 0.91 0.96 1.11 1.22
0.30 0.25 0.30 0.38 0.41 0.43 0.39 0.40 0.48 0.58 0.68 0.79 0.87 0.99 1.09 1.13 1.09 1.01 1.04 1.05 1.12 1.19 1.17 1.15 1.15 1.16 1.18 1.21 1.10 0.98 0.93 1.00 1.05 1.08 1.07 0.94 0.86 0.93 0.89 0.92 0.89 0.88 0.97
0.31 0.24 0.24 0.27 0.34 0.41 0.45 0.51 0.61 0.73 0.79 0.86 0.95 1.09 1.19 1.19 1.17 1.19 1.24 1.29 1.35 1.38 1.36 1.30 1.23 1.26 1.26 1.18 1.01 0.94 0.86 0.89 0.94 0.99 1.04 1.04 0.95 0.94 1.00 1.02 0.98 0.90 0.87
0.34 0.31 0.28 0.34 0.42 0.46 0.49 0.64 0.79 0.93 0.99 0.98 1.03 1.15 1.27 1.32 1.35 1.40 1.45 1.50 1.55 1.49 1.44 1.42 1.42 1.37 1.37 1.34 1.13 1.06 0.98 1.03 1.06 1.09 1.08 1.06 0.99 1.06 1.03 1.01 1.02 0.96 0.91
0.40 0.39 0.38 0.46 0.55 0.61 0.66 0.78 0.87 0.96 1.08 1.16 1.28 1.44 1.60 1.64 1.67 1.77 1.85 1.78 1.70 1.58 1.58 1.55 1.53 1.55 1.62 1.74 1.50 1.36 1.28 1.31 1.29 1.33 1.23 1.14 1.06 1.08 1.02 0.95 0.98 0.97 0.97
0.48 0.44 0.44 0.52 0.66 0.76 0.85 0.97 1.10 1.19 1.16 1.24 1.41 1.62 1.77 1.85 1.91 2.03 2.07 2.02 2.00 1.96 1.88 1.76 1.71 1.72 1.77 1.89 1.70 1.55 1.47 1.52 1.57 1.53 1.40 1.36 1.31 1.16 1.14 1.09 1.07 1.08 1.08
0.57 0.55 0.54 0.66 0.81 0.94 0.99 1.09 1.15 1.18 1.21 1.27 1.41 1.54 1.68 1.72 1.79 2.01 2.11 2.17 2.18 2.12 2.03 1.97 1.82 1.78 1.77 1.70 1.57 1.42 1.37 1.49 1.64 1.71 1.61 1.52 1.42 1.21 1.15 1.08 1.08 1.09 1.02
0.56 0.57 0.61 0.79 0.96 1.10 1.18 1.24 1.18 1.24 1.30 1.36 1.49 1.61 1.69 1.77 1.86 1.91 1.91 1.97 2.04 2.03 1.95 1.95 1.87 1.81 1.78 1.73 1.48 1.25 1.17 1.21 1.32 1.50 1.57 1.47 1.33 1.16 1.04 1.02 0.98 0.90 0.80
0.45 0.49 0.59 0.70 0.81 0.91 1.01 1.15 1.24 1.32 1.39 1.46 1.51 1.58 1.69 1.72 1.75 1.87 1.95 2.01 2.10 2.19 2.10 1.99 1.90 1.84 1.77 1.65 1.47 1.27 1.17 1.20 1.29 1.40 1.47 1.35 1.23 1.07 0.99 0.93 0.84 0.77 0.81
0.45 0.49 0.59 0.65 0.72 0.77 0.85 0.95 1.04 1.17 1.27 1.34 1.40 1.45 1.49 1.57 1.65 1.70 1.79 1.80 1.86 1.84 1.81 1.77 1.75 1.73 1.68 1.52 1.43 1.31 1.20 1.24 1.35 1.41 1.47 1.38 1.33 1.26 1.18 1.10 1.03 1.00 1.01
0.52 0.56 0.59 0.61 0.65 0.70 0.83 0.93 1.02 1.16 1.30 1.39 1.41 1.37 1.35 1.40 1.46 1.50 1.49 1.46 1.38 1.35 1.31 1.31 1.32 1.30 1.25 1.17 1.06 1.01 1.01 1.06 1.20 1.27 1.43 1.50 1.47 1.43 1.36 1.24 1.13 1.08 1.03